Time,TemperatureF,DewpointF,PressureIn,WindDirection,WindDirectionDegrees,WindSpeedMPH,WindSpeedGustMPH,Humidity,HourlyPrecipIn,Conditions,Clouds,dailyrainin,SoftwareType,DateUTC
2013-07-11 01:11:00,70.0,61.0,29.76,ESE,107,0.0,-999.0,72,-99.99,,,-99.99,,2013-07-11 08:11:00,
2013-07-11 01:22:00,70.0,61.0,29.77,ESE,109,0.0,-999.0,72,-99.99,,,-99.99,,2013-07-11 08:22:00,
2013-07-11 01:33:00,70.0,61.0,29.77,ESE,109,0.0,-999.0,72,-99.99,,,-99.99,,2013-07-11 08:33:00,
2013-07-11 01:42:00,69.0,60.0,29.78,ESE,107,0.0,-999.0,74,-99.99,,,-99.99,,2013-07-11 08:42:00,
2013-07-11 01:53:00,69.0,60.0,29.78,ESE,107,0.0,-999.0,74,-99.99,,,-99.99,,2013-07-11 08:53:00,
2013-07-11 02:02:00,69.0,61.0,29.78,ESE,109,0.0,-999.0,75,-99.99,,,-99.99,,2013-07-11 09:02:00,
2013-07-11 02:12:00,68.0,60.0,29.79,ESE,109,0.0,-999.0,76,-99.99,,,-99.99,,2013-07-11 09:12:00,
2013-07-11 02:21:00,68.0,60.0,29.79,ESE,109,0.0,-999.0,76,-99.99,,,-99.99,,2013-07-11 09:21:00,
2013-07-11 02:33:00,68.0,61.0,29.79,ESE,109,0.0,-999.0,77,-99.99,,,-99.99,,2013-07-11 09:33:00,
2013-07-11 02:43:00,68.0,61.0,29.79,ESE,109,0.0,-999.0,77,-99.99,,,-99.99,,2013-07-11 09:43:00,
2013-07-11 02:53:00,67.0,60.0,29.78,ESE,109,0.0,-999.0,78,-99.99,,,-99.99,,2013-07-11 09:53:00,
2013-07-11 03:01:00,67.0,60.0,29.78,ESE,109,0.0,-999.0,78,-99.99,,,-99.99,,2013-07-11 10:01:00,
2013-07-11 03:11:00,67.0,60.0,29.78,ESE,109,0.0,-999.0,78,-99.99,,,-99.99,,2013-07-11 10:11:00,
2013-07-11 03:21:00,67.0,60.0,29.78,ESE,109,0.0,-999.0,78,-99.99,,,-99.99,,2013-07-11 10:21:00,
2013-07-11 03:33:00,67.0,60.0,29.78,ESE,109,0.0,-999.0,78,-99.99,,,-99.99,,2013-07-11 10:33:00,
2013-07-11 03:42:00,67.0,60.0,29.78,ESE,109,0.0,-999.0,78,-99.99,,,-99.99,,2013-07-11 10:42:00,
2013-07-11 03:52:00,67.0,60.0,29.78,ESE,109,0.0,-999.0,78,-99.99,,,-99.99,,2013-07-11 10:52:00,
2013-07-11 04:01:00,67.0,60.0,29.77,ESE,109,0.0,-999.0,78,-99.99,,,-99.99,,2013-07-11 11:01:00,
2013-07-11 04:12:00,67.0,60.0,29.77,ESE,109,0.0,-999.0,78,-99.99,,,-99.99,,2013-07-11 11:12:00,
2013-07-11 04:22:00,67.0,60.0,29.76,ESE,109,0.0,-999.0,78,-99.99,,,-99.99,,2013-07-11 11:22:00,
2013-07-11 04:32:00,67.0,60.0,29.76,ESE,109,0.0,-999.0,78,-99.99,,,-99.99,,2013-07-11 11:32:00,
2013-07-11 04:43:00,67.0,60.0,29.75,ESE,109,0.0,-999.0,78,-99.99,,,-99.99,,2013-07-11 11:43:00,
2013-07-11 04:53:00,67.0,60.0,29.75,ESE,109,0.0,-999.0,78,-99.99,,,-99.99,,2013-07-11 11:53:00,
2013-07-11 05:01:00,67.0,60.0,29.75,ESE,109,0.0,-999.0,78,-99.99,,,-99.99,,2013-07-11 12:01:00,
2013-07-11 05:12:00,67.0,60.0,29.76,ESE,109,0.0,-999.0,79,-99.99,,,-99.99,,2013-07-11 12:12:00,
2013-07-11 05:22:00,67.0,60.0,29.75,ESE,109,0.0,-999.0,79,-99.99,,,-99.99,,2013-07-11 12:22:00,
2013-07-11 05:33:00,67.0,60.0,29.75,ESE,109,0.0,-999.0,79,-99.99,,,-99.99,,2013-07-11 12:33:00,
2013-07-11 05:43:00,67.0,60.0,29.76,ESE,109,0.0,-999.0,78,-99.99,,,-99.99,,2013-07-11 12:43:00,
2013-07-11 06:01:00,67.0,60.0,29.77,ESE,109,0.0,-999.0,78,-99.99,,,-99.99,,2013-07-11 13:01:00,
2013-07-11 06:11:00,67.0,60.0,29.78,ESE,109,0.0,-999.0,79,-99.99,,,-99.99,,2013-07-11 13:11:00,
2013-07-11 06:33:00,67.0,61.0,29.78,ESE,109,0.0,-999.0,80,-99.99,,,-99.99,,2013-07-11 13:33:00,
2013-07-11 06:44:00,67.0,60.0,29.78,ESE,109,0.0,-999.0,79,-99.99,,,-99.99,,2013-07-11 13:44:00,
2013-07-11 07:02:00,67.0,60.0,29.79,ESE,109,0.0,-999.0,79,-99.99,,,-99.99,,2013-07-11 14:02:00,
2013-07-11 07:12:00,67.0,60.0,29.79,ESE,103,0.0,-999.0,79,-99.99,,,-99.99,,2013-07-11 14:12:00,
2013-07-11 07:33:00,67.0,60.0,29.79,ESE,103,0.0,-999.0,79,-99.99,,,-99.99,,2013-07-11 14:33:00,
2013-07-11 07:44:00,67.0,61.0,29.79,ESE,103,0.0,-999.0,80,-99.99,,,-99.99,,2013-07-11 14:44:00,
2013-07-11 07:53:00,67.0,60.0,29.79,ESE,103,0.0,-999.0,79,-99.99,,,-99.99,,2013-07-11 14:53:00,
2013-07-11 08:02:00,67.0,60.0,29.79,ESE,103,0.0,-999.0,79,-99.99,,,-99.99,,2013-07-11 15:02:00,
2013-07-11 08:12:00,67.0,60.0,29.80,ESE,103,0.0,-999.0,79,-99.99,,,-99.99,,2013-07-11 15:12:00,
2013-07-11 08:22:00,67.0,60.0,29.80,ESE,103,0.0,-999.0,79,-99.99,,,-99.99,,2013-07-11 15:22:00,
2013-07-11 08:34:00,68.0,61.0,29.80,ESE,107,0.0,-999.0,79,-99.99,,,-99.99,,2013-07-11 15:34:00,
2013-07-11 08:44:00,68.0,61.0,29.80,ESE,107,0.0,-999.0,79,-99.99,,,-99.99,,2013-07-11 15:44:00,
2013-07-11 08:53:00,68.0,61.0,29.81,ESE,107,0.0,-999.0,78,-99.99,,,-99.99,,2013-07-11 15:53:00,
2013-07-11 09:02:00,68.0,61.0,29.81,ESE,107,0.0,-999.0,78,-99.99,,,-99.99,,2013-07-11 16:02:00,
2013-07-11 09:12:00,68.0,61.0,29.81,ESE,107,0.0,-999.0,79,-99.99,,,-99.99,,2013-07-11 16:12:00,
2013-07-11 09:22:00,68.0,61.0,29.81,ESE,107,0.0,-999.0,79,-99.99,,,-99.99,,2013-07-11 16:22:00,
2013-07-11 09:44:00,68.0,61.0,29.81,ESE,107,0.0,-999.0,79,-99.99,,,-99.99,,2013-07-11 16:44:00,
2013-07-11 09:53:00,68.0,62.0,29.81,ESE,107,0.0,-999.0,80,-99.99,,,-99.99,,2013-07-11 16:53:00,
2013-07-11 10:02:00,68.0,62.0,29.81,ESE,107,0.0,-999.0,80,-99.99,,,-99.99,,2013-07-11 17:02:00,
2013-07-11 10:13:00,68.0,61.0,29.81,ESE,107,0.0,-999.0,79,-99.99,,,-99.99,,2013-07-11 17:13:00,
2013-07-11 10:52:00,69.0,61.0,29.82,ESE,107,0.0,-999.0,77,-99.99,,,-99.99,,2013-07-11 17:52:00,
2013-07-11 11:02:00,70.0,62.0,29.82,ESE,107,0.0,-999.0,75,-99.99,,,-99.99,,2013-07-11 18:02:00,
2013-07-11 11:12:00,71.0,62.0,29.82,ESE,107,0.0,-999.0,74,-99.99,,,-99.99,,2013-07-11 18:12:00,
2013-07-11 11:44:00,72.0,62.0,29.82,ESE,107,0.0,-999.0,72,-99.99,,,-99.99,,2013-07-11 18:44:00,
2013-07-11 11:52:00,73.0,63.0,29.82,ESE,107,0.0,-999.0,72,-99.99,,,-99.99,,2013-07-11 18:52:00,
2013-07-11 12:01:00,73.0,63.0,29.82,ESE,107,0.0,-999.0,72,-99.99,,,-99.99,,2013-07-11 19:01:00,
2013-07-11 12:12:00,73.0,63.0,29.82,ESE,107,0.0,-999.0,72,-99.99,,,-99.99,,2013-07-11 19:12:00,
2013-07-11 12:34:00,74.0,64.0,29.82,ESE,107,0.0,-999.0,71,-99.99,,,-99.99,,2013-07-11 19:34:00,
2013-07-11 12:43:00,74.0,64.0,29.82,ESE,116,0.0,-999.0,70,-99.99,,,-99.99,,2013-07-11 19:43:00,
2013-07-11 12:52:00,74.0,64.0,29.82,ESE,116,0.0,-999.0,70,-99.99,,,-99.99,,2013-07-11 19:52:00,
2013-07-11 13:02:00,75.0,63.0,29.82,ESE,113,0.0,-999.0,67,-99.99,,,-99.99,,2013-07-11 20:02:00,
2013-07-11 13:12:00,77.0,66.0,29.82,East,84,0.0,-999.0,68,-99.99,,,-99.99,,2013-07-11 20:12:00,
2013-07-11 13:33:00,77.0,63.0,29.81,East,100,0.0,-999.0,62,-99.99,,,-99.99,,2013-07-11 20:33:00,
2013-07-11 13:52:00,77.0,63.0,29.81,East,96,0.0,-999.0,63,-99.99,,,-99.99,,2013-07-11 20:52:00,
2013-07-11 14:02:00,78.0,64.0,29.80,ESE,111,0.0,-999.0,62,-99.99,,,-99.99,,2013-07-11 21:02:00,
2013-07-11 14:12:00,78.0,65.0,29.80,SE,128,0.0,-999.0,64,-99.99,,,-99.99,,2013-07-11 21:12:00,
2013-07-11 14:22:00,78.0,64.0,29.79,SE,128,0.0,-999.0,62,-99.99,,,-99.99,,2013-07-11 21:22:00,
2013-07-11 14:33:00,78.0,64.0,29.79,SE,128,0.0,-999.0,62,-99.99,,,-99.99,,2013-07-11 21:33:00,
2013-07-11 14:52:00,78.0,64.0,29.79,ESE,123,0.0,-999.0,63,-99.99,,,-99.99,,2013-07-11 21:52:00,
2013-07-11 15:02:00,78.0,64.0,29.78,ESE,113,0.0,-999.0,63,-99.99,,,-99.99,,2013-07-11 22:02:00,
2013-07-11 15:12:00,77.0,65.0,29.78,ESE,111,0.0,-999.0,66,-99.99,,,-99.99,,2013-07-11 22:12:00,
2013-07-11 15:22:00,77.0,65.0,29.78,ESE,111,0.0,-999.0,66,-99.99,,,-99.99,,2013-07-11 22:22:00,
2013-07-11 15:31:00,77.0,65.0,29.78,East,101,0.0,-999.0,67,-99.99,,,-99.99,,2013-07-11 22:31:00,
2013-07-11 15:44:00,77.0,65.0,29.78,East,83,0.0,-999.0,67,-99.99,,,-99.99,,2013-07-11 22:44:00,
2013-07-11 15:52:00,77.0,65.0,29.78,East,83,0.0,-999.0,67,-99.99,,,-99.99,,2013-07-11 22:52:00,
2013-07-11 16:01:00,77.0,65.0,29.77,East,83,0.0,-999.0,66,-99.99,,,-99.99,,2013-07-11 23:01:00,
2013-07-11 16:11:00,78.0,65.0,29.77,East,94,0.0,-999.0,65,-99.99,,,-99.99,,2013-07-11 23:11:00,
2013-07-11 16:33:00,79.0,65.0,29.77,ESE,107,0.0,-999.0,63,-99.99,,,-99.99,,2013-07-11 23:33:00,
2013-07-11 16:44:00,79.0,65.0,29.77,SE,131,0.0,-999.0,62,-99.99,,,-99.99,,2013-07-11 23:44:00,
2013-07-11 17:02:00,80.0,65.0,29.76,SE,127,0.0,-999.0,61,-99.99,,,-99.99,,2013-07-12 00:02:00,
2013-07-11 17:12:00,80.0,65.0,29.75,ESE,102,0.0,-999.0,61,-99.99,,,-99.99,,2013-07-12 00:12:00,
2013-07-11 17:33:00,80.0,66.0,29.76,ENE,63,0.0,-999.0,62,-99.99,,,-99.99,,2013-07-12 00:33:00,
2013-07-11 17:43:00,78.0,65.0,29.76,ESE,113,0.0,-999.0,65,-99.99,,,-99.99,,2013-07-12 00:43:00,
2013-07-11 17:52:00,77.0,65.0,29.76,ESE,109,0.0,-999.0,66,-99.99,,,-99.99,,2013-07-12 00:52:00,
2013-07-11 18:02:00,77.0,65.0,29.76,ESE,109,0.0,-999.0,66,-99.99,,,-99.99,,2013-07-12 01:02:00,
2013-07-11 18:12:00,76.0,65.0,29.75,East,89,0.0,-999.0,68,-99.99,,,-99.99,,2013-07-12 01:12:00,
2013-07-11 18:32:00,77.0,65.0,29.75,East,92,0.0,-999.0,67,-99.99,,,-99.99,,2013-07-12 01:32:00,
2013-07-11 18:44:00,79.0,65.0,29.74,ESE,102,0.0,-999.0,62,-99.99,,,-99.99,,2013-07-12 01:44:00,
2013-07-11 18:52:00,80.0,65.0,29.74,ESE,105,0.0,-999.0,60,-99.99,,,-99.99,,2013-07-12 01:52:00,
2013-07-11 19:02:00,80.0,65.0,29.74,ESE,105,0.0,-999.0,60,-99.99,,,-99.99,,2013-07-12 02:02:00,
2013-07-11 19:13:00,81.0,65.0,29.74,ESE,105,0.0,-999.0,59,-99.99,,,-99.99,,2013-07-12 02:13:00,
2013-07-11 19:33:00,81.0,65.0,29.74,ESE,105,0.0,-999.0,59,-99.99,,,-99.99,,2013-07-12 02:33:00,
2013-07-11 19:43:00,81.0,65.0,29.74,ESE,105,0.0,-999.0,59,-99.99,,,-99.99,,2013-07-12 02:43:00,
2013-07-11 19:52:00,79.0,64.0,29.74,ESE,105,0.0,-999.0,61,-99.99,,,-99.99,,2013-07-12 02:52:00,
2013-07-11 20:02:00,79.0,64.0,29.74,ESE,105,0.0,-999.0,61,-99.99,,,-99.99,,2013-07-12 03:02:00,
2013-07-11 20:13:00,78.0,65.0,29.74,ESE,105,0.0,-999.0,64,-99.99,,,-99.99,,2013-07-12 03:13:00,
2013-07-11 20:21:00,77.0,64.0,29.75,ESE,105,0.0,-999.0,65,-99.99,,,-99.99,,2013-07-12 03:21:00,
2013-07-11 20:43:00,75.0,64.0,29.75,ESE,105,0.0,-999.0,68,-99.99,,,-99.99,,2013-07-12 03:43:00,
2013-07-11 21:01:00,74.0,64.0,29.76,ESE,105,0.0,-999.0,70,-99.99,,,-99.99,,2013-07-12 04:01:00,
2013-07-11 21:11:00,72.0,62.0,29.76,ESE,105,0.0,-999.0,71,-99.99,,,-99.99,,2013-07-12 04:11:00,
2013-07-11 21:21:00,71.0,62.0,29.77,ESE,105,0.0,-999.0,74,-99.99,,,-99.99,,2013-07-12 04:21:00,
2013-07-11 21:32:00,71.0,62.0,29.77,ESE,105,0.0,-999.0,74,-99.99,,,-99.99,,2013-07-12 04:32:00,
2013-07-11 21:43:00,70.0,62.0,29.77,ESE,105,0.0,-999.0,76,-99.99,,,-99.99,,2013-07-12 04:43:00,
2013-07-11 21:53:00,69.0,61.0,29.78,ESE,105,0.0,-999.0,77,-99.99,,,-99.99,,2013-07-12 04:53:00,
2013-07-11 22:02:00,69.0,61.0,29.78,ESE,105,0.0,-999.0,77,-99.99,,,-99.99,,2013-07-12 05:02:00,
2013-07-11 22:11:00,69.0,62.0,29.78,ESE,105,0.0,-999.0,78,-99.99,,,-99.99,,2013-07-12 05:11:00,
2013-07-11 22:22:00,69.0,62.0,29.78,ESE,105,0.0,-999.0,78,-99.99,,,-99.99,,2013-07-12 05:22:00,
2013-07-11 22:32:00,68.0,61.0,29.78,ESE,105,0.0,-999.0,78,-99.99,,,-99.99,,2013-07-12 05:32:00,
2013-07-11 22:42:00,68.0,61.0,29.78,ESE,105,0.0,-999.0,79,-99.99,,,-99.99,,2013-07-12 05:42:00,
2013-07-11 22:53:00,68.0,62.0,29.79,ESE,105,0.0,-999.0,80,-99.99,,,-99.99,,2013-07-12 05:53:00,
2013-07-11 23:01:00,68.0,62.0,29.79,ESE,105,0.0,-999.0,80,-99.99,,,-99.99,,2013-07-12 06:01:00,
2013-07-11 23:11:00,67.0,60.0,29.78,ESE,105,0.0,-999.0,79,-99.99,,,-99.99,,2013-07-12 06:11:00,
2013-07-11 23:32:00,67.0,60.0,29.78,ESE,105,0.0,-999.0,79,-99.99,,,-99.99,,2013-07-12 06:32:00,
2013-07-11 23:42:00,66.0,59.0,29.78,ESE,105,0.0,-999.0,79,-99.99,,,-99.99,,2013-07-12 06:42:00,
2013-07-11 23:52:00,66.0,60.0,29.78,ESE,105,0.0,-999.0,81,-99.99,,,-99.99,,2013-07-12 06:52:00,